Location: Bay Wood
(40.7501°N, 73.2912°W)
Time: 00:02:36
(UTC+00:00)

Daily predictions for brighter satellites

Satellite Brightness Start Highest point End
(mag) Time Altitude Azimuth Time Altitude Azimuth Time Altitude Azimuth
ERS-2 3.4 00:05:35 10° N 00:09:02 41° WNW 00:12:28 10° SW
Cosmos 1980 Rocket 3.1 00:04:20 10° SW 00:09:48 50° WNW 00:15:20 10° NNE
NOSS 2-1 (C) 4.4 00:05:15 10° NNW 00:10:33 83° NE 00:17:31 12° SE
Cosmos 44 4.1 00:05:27 10° NW 00:10:48 58° WSW 00:16:02 10° SSE
Cosmos 1707 Rocket 3.5 00:08:06 10° N 00:12:32 90° W 00:16:54 10° S
Cosmos 1302 Rocket 3.9 00:07:52 10° SSW 00:13:02 82° ESE 00:18:15 10° NNE
Cosmos 1633 Rocket 2.9 00:09:43 10° S 00:14:06 78° E 00:18:32 10° N
NOSS 2-1 (D) 4.4 00:11:20 10° NW 00:16:42 90° SSE 00:23:36 13° SSE
Cosmos 968 Rocket 3.9 00:13:44 10° N 00:18:42 41° ENE 00:19:23 39° E
Cosmos 2322 Rocket 2.4 00:14:05 10° S 00:19:20 43° ESE 00:21:06 33° ENE
Cosmos 2227 4.1 00:17:32 10° NNW 00:23:20 74° ENE 00:26:35 27° SE
USA 305 4.4 00:21:37 10° W 00:25:26 31° NNW 00:27:36 20° NNE
CZ-4 R/B 4.0 00:25:40 10° SW 00:28:33 20° W 00:31:27 10° NW
Meteor 1-20 Rocket 4.5 00:27:46 10° SSW 00:33:11 66° W 00:38:39 10° N
ERBS 3.3 00:30:25 10° SW 00:32:35 38° SW 00:32:35 38° SW
SL-16 R/B 2.0 00:33:13 10° SSW 00:38:52 82° ESE 00:43:30 16° NNE
Ariane Rocket 3.0 00:43:57 61° NE 00:43:57 61° NE 00:48:42 10° N
Cosmos 1470 Rocket 3.5 00:41:55 10° S 00:46:23 83° W 00:50:53 10° N
Meteor 1-19 Rocket 4.2 00:40:41 10° N 00:46:42 89° E 00:50:02 27° S
MOS 1 4.2 00:47:37 62° ESE 00:48:17 69° ENE 00:53:57 10° N
SJ-6B 3.7 00:51:03 44° NNW 00:51:03 44° NNW 00:53:55 10° NNW
DMSP B5D2-2 4.5 00:44:58 10° N 00:50:09 61° WNW 00:55:16 10° SSW
USA 234 4.3 00:51:25 16° NNE 00:56:10 39° NNW 01:02:07 10° W
IRS-1A Rocket 4.1 00:56:00 67° SSE 00:56:47 84° ENE 01:02:27 10° NNW
Cosmos 2263 Rocket 2.8 00:53:16 10° NNW 00:58:41 54° WSW 01:01:17 29° S
GP-B 3.6 01:02:28 57° W 01:02:28 57° W 01:06:43 10° N
Cosmos 1461 4.0 00:57:49 10° SW 01:02:23 50° NW 01:03:13 44° NNW
Nadezhda 3 Rocket 4.4 00:58:08 10° NNW 01:04:25 64° W 01:10:41 10° S
Meteor 1-14 Rocket 4.3 00:59:33 10° SSW 01:05:11 75° W 01:10:46 10° N
Meteor 2-4 Rocket 4.0 01:13:29 10° N 01:18:17 63° NNW 01:18:17 63° NNW
Cosmos 1844 Rocket 4.3 01:31:21 10° NNW 01:33:48 26° N 01:33:48 26° N
Cosmos 2322 Rocket 4.0 01:58:46 10° WSW 02:03:06 27° WNW 02:03:06 27° WNW
SeaSat 1 3.8 08:35:58 10° ESE 08:40:27 37° NE 08:41:00 36° NE
Cosmos 2082 Rocket 2.6 08:55:33 55° NNE 08:55:33 55° NNE 08:59:59 10° NNE
Meteor 2-8 Rocket 4.5 08:55:53 68° N 08:55:53 68° N 09:01:11 10° N
ATLAS CENTAUR R/B 4.2 08:53:26 11° NNE 08:55:07 13° NE 08:57:11 10° ENE
FENGYUN 3A 4.3 08:49:59 10° NNE 08:55:18 52° E 08:56:56 39° SSE
Centaur D AC-29 4.1 08:58:33 11° S 08:58:33 11° S 08:59:10 10° SSE
Cosmos 1980 Rocket 2.3 09:02:29 53° N 09:03:49 74° ENE 09:09:29 10° SSE
Iridium 4 Rocket 3.8 09:03:12 58° SE 09:03:53 65° E 09:08:46 10° N
Meteor 2-3 Rocket 3.7 09:00:11 10° N 09:05:55 81° E 09:11:40 10° SSE
Cosmos 2322 Rocket 4.5 09:08:39 10° N 09:12:57 22° NE 09:17:14 10° ESE
USA 229 DEB 4.0 09:16:41 43° NW 09:16:41 43° NW 09:23:02 10° NNE
USA 229 4.0 09:16:46 43° NW 09:16:46 43° NW 09:23:09 10° NNE
Cosmos 1833 Rocket 4.1 09:19:26 24° NNW 09:19:26 24° NNW 09:22:22 10° N
Cosmos 1244 Rocket 4.3 09:11:22 10° N 09:17:34 89° W 09:23:47 10° S
Celestis-02/Orion 38 4.5 09:19:16 10° NNE 09:24:35 86° WNW 09:25:33 61° SW
Cosmos 1461 3.7 09:28:43 43° SSE 09:28:43 43° SSE 09:31:36 10° SSE
Cosmos 1766 Rocket 4.4 09:23:26 10° N 09:29:36 38° S 09:32:23 10° S
CZ-2C R/B 3.8 09:23:39 10° N 09:26:01 25° NNW 09:26:01 25° NNW
Meteor 2-15 Rocket 4.3 09:22:55 13° S 09:28:28 87° W 09:34:39 10° N
NOSS 3-1 (A) 4.0 09:33:11 35° NW 09:33:14 35° NW 09:38:58 10° NNE
SL-16 R/B 3.6 09:28:00 10° N 09:33:15 37° ENE 09:38:28 10° SE
Cosmos 1048 Rocket 4.3 09:34:33 45° NW 09:34:33 45° NW 09:38:52 10° N
Lacrosse 5 4.2 09:34:27 10° NNW 09:36:34 12° N 09:38:43 10° NNE
Cosmos 494 Rocket 3.9 09:37:05 58° WSW 09:37:41 63° WNW 09:42:49 10° NNE
X-37B 2.0 09:40:27 32° NNE 09:40:27 32° NNE 09:42:51 10° ENE
ALOS 2.2 09:37:50 10° N 09:42:25 57° WNW 09:42:44 55° W
Cosmos 1553 Rocket 3.9 09:37:07 10° SSW 09:43:29 71° W 09:49:51 10° N
Cosmos 1484 Rocket 3.7 09:40:13 10° N 09:42:31 34° NNW 09:42:31 34° NNW
Cosmos 1417 Rocket 4.4 09:38:47 10° S 09:44:58 80° W 09:51:17 10° N
Cosmos 1408 Rocket 3.7 09:40:47 10° N 09:45:15 74° E 09:49:39 10° SSE
Cosmos 1269 Rocket 4.2 09:43:00 10° S 09:48:14 71° ESE 09:53:31 10° NNE
Cosmos 220 Rocket 3.9 09:51:40 21° NNW 09:54:27 65° WSW 09:58:49 10° S
SKYMED 2 4.1 09:51:35 10° SSE 09:55:51 60° ENE 10:00:08 10° N
H-2A R/B 4.0 09:45:04 21° WSW 09:55:51 44° S 10:00:45 10° ESE
H-2A R/B 4.4 09:53:01 10° NNE 09:56:39 36° E 10:00:15 10° SSE
Cosmos 1500 Rocket 4.4 09:53:14 10° N 09:57:28 50° E 10:01:41 10° SSE
NOSS 2-2 (D) 2.9 09:57:00 40° SSW 09:58:07 82° ESE 10:01:44 10° NE
MOS 1 Rocket 3.5 09:55:10 10° SSE 09:59:23 64° ENE 10:03:41 10° N
Cosmos 1869 4.4 10:00:42 27° NW 10:00:42 27° NW 10:03:03 10° N
Cosmos 1842 Rocket 3.4 09:55:10 10° S 09:59:33 79° W 10:03:56 10° N
Cosmos 292 Rocket 4.2 09:59:11 36° W 09:59:50 38° WSW 10:04:16 10° S
Cosmos 2221 2.4 09:56:30 10° S 10:00:53 79° W 10:05:16 10° N
ISS -2.7 10:02:06 31° NNW 10:02:06 31° NNW 10:05:09 10° NE
H-2A R/B 2.4 10:03:12 10° S 10:07:21 42° W 10:11:27 10° NNW
SJ-12 3.8 10:05:13 10° N 10:09:18 77° WNW 10:13:21 10° SSW
Cosmos 2344 3.7 10:02:18 10° SSW 10:09:55 76° ESE 10:17:35 10° NE
Cosmos 1331 Rocket 4.1 10:07:25 10° NNW 10:12:26 52° WSW 10:17:23 10° S
Cosmos 2278 4.4 10:10:01 17° NW 10:13:29 31° WSW 10:18:26 10° SSW
SeaSat 1 3.2 10:13:44 10° SSW 10:17:59 29° WSW 10:20:53 17° WNW
CZ-4B R/B 1.1 10:14:49 10° S 10:18:04 80° WSW 10:21:15 10° NNW
SL-27 R/B 2.5 10:15:27 10° SSW 10:18:55 78° ESE 10:22:29 10° NNE
S3M 4.2 10:20:56 10° SSW 10:26:45 46° WNW 10:32:37 10° N
Envisat 3.4 10:25:25 10° NNE 10:30:29 67° ESE 10:35:32 10° S
Cosmos 2360 Rocket 3.2 10:26:24 10° NNW 10:31:55 49° ENE 10:37:22 10° SE
ATLAS CENTAUR R/B 1.3 10:30:22 10° NW 10:34:25 77° WSW 10:38:44 10° SSE
CREW DRAGON DEMO-1 DEB 2.5 10:33:52 19° WNW 10:35:43 71° SW 10:38:34 10° SE
Cosmos 1745 Rocket 4.4 10:32:21 10° NNW 10:38:08 41° W 10:43:58 10° SSW
Cosmos 2082 Rocket 3.9 10:37:25 13° WNW 10:39:13 14° NW 10:42:13 10° NNW
Cosmos 1302 Rocket 4.1 10:35:51 10° NNW 10:41:00 58° WSW 10:46:09 10° S
COSMO-SKYMED 1 3.0 10:39:56 10° SSW 10:43:59 38° W 10:48:03 10° NNW
CZ-4B R/B 3.2 10:39:45 10° N 10:44:02 54° WNW 10:48:24 10° SSW
ERS-2 2.1 10:42:06 10° SSE 10:45:43 89° WSW 10:49:22 10° NNW
NOSS 2-2 (C) 4.0 10:44:16 13° WSW 10:46:49 29° NW 10:50:07 10° NNE
Cosmos 1980 Rocket 3.7 10:44:25 11° WNW 10:47:05 15° W 10:50:06 10° SW
Meteor 1-4 Rocket 3.4 10:43:46 10° SW 10:47:06 31° WNW 10:50:26 10° NNW
Cosmos 1862 4.1 10:45:19 10° NNW 10:48:52 30° W 10:52:25 10° SSW
Cosmos 1709 Rocket 4.1 10:45:26 10° NNW 10:51:38 57° W 10:57:51 10° SSW
Milstar 3 Cent rocket 4.1 10:48:18 10° SSW 10:51:46 20° SSE 10:56:07 10° ESE
Meteor 1-31 Rocket 4.2 10:49:04 10° NNW 10:51:52 19° WNW 10:54:39 10° WSW
Cosmos 1151 Rocket 4.5 10:47:59 10° SSE 10:52:06 43° E 10:56:13 10° NNE
SAR-Lupe-4 3.5 10:48:42 10° SSE 10:52:15 88° WSW 10:55:51 10° NNW
Cosmos 1743 Rocket 4.2 10:51:18 10° NNW 10:55:22 35° W 10:59:26 10° SSW
Cosmos 1805 Rocket 3.6 10:51:56 10° NNW 10:56:22 68° W 11:00:47 10° S
Cosmos 1933 3.5 10:52:46 10° S 10:56:46 78° E 11:00:48 10° N
Cosmos 2322 Rocket 2.3 10:51:50 10° NNW 10:57:24 59° WSW 11:02:56 10° S
PSLV R/B 3.9 10:54:32 10° NNE 10:58:36 90° SE 11:02:34 10° SSW
Cosmos 1606 3.1 10:55:06 10° SSW 10:58:45 40° WNW 11:02:27 10° N
Cosmos 1689 Rocket 2.1 11:02:10 10° S 11:04:54 50° W 11:07:41 10° NNW
OE (NEXTSAT) 4.4 11:01:43 10° WNW 11:05:13 78° NNE 11:08:41 10° ESE
CZ-2C R/B 3.0 11:01:34 10° SSE 11:07:07 79° ENE 11:12:45 10° N
SAR-Lupe-1 4.3 11:06:57 10° S 11:10:24 48° W 11:13:54 10° NNW
